"Pseudo-MPEC" for ZTF09oY

Created 2020 Jan 19 10:07:33 UT using Find_Orb

Click here for an explanation of pseudo-MPECs

 
 Astrometry: 
     ZTF09oY  C2020 01 14.30246507 47 27.20 +34 36 50.3    ~1EB7 17.09RUNEOCPI41
     ZTF09oY  C2020 01 14.30281307 47 25.83 +34 36 23.4    ~1EB7 17.09RUNEOCPI41
     ZTF09oY  C2020 01 14.30291707 47 25.63 +34 36 13.7    ~1EB7 17.10RUNEOCPI41
     ZTF09oY  C2020 01 14.30326407 47 24.25 +34 35 47.6    ~1EB7 17.10RUNEOCPI41
     ZTF09oY  C2020 01 14.30338007 47 23.80 +34 35 38.9    ~1EB7 17.06RUNEOCPI41
     ZTF09oY  C2020 01 14.30372707 47 22.50 +34 35 13.0    ~1EB7 17.06RUNEOCPI41
     ZTF09oY  C2020 01 14.30383107 47 22.13 +34 35 04.6    ~1EB7 17.10RUNEOCPI41
     ZTF09oY  C2020 01 14.30417807 47 20.85 +34 34 38.7    ~1EB7 17.10RUNEOCPI41

Station data:
(I41) Palomar Mountain--ZTF  (N33.357340 W116.859780)  US/California. 1.2-m
   f/2.44 Oschin Schmidt + CCD.

Orbital elements:  ZTF09oY
   Perigee 2020 Jan 14.377460 +/- 85.8 TT =  9:03:32 (JD 2458862.877460)
Epoch 2020 Jan 14.0 TT = JDT 2458862.5                        AutoNEOCP
q346778.873 +/- 1.11e+7             (J2000 equator)
H   30.0  G 0.15                    Peri.  145.71442 +/- 100
                                    Node   286.14217 +/- 38
e   1.1947471 +/- 0.0711            Incl.  104.80437 +/- 12
From 8 observations 2020 Jan. 14 (2.5 min); mean residual 0".62
Residuals in arcseconds: 
200114 I41  .07-  .83+    200114 I41  .14+  .63-    200114 I41  .04-  .13-    
200114 I41  1.0-  .60+    200114 I41  .10-  .43-    200114 I41  .07+  .60+    
200114 I41  1.3+  1.1-    200114 I41  .24-  .29+    

Ephemerides (geocentric):
Date (UTC) HH   RA              Dec         delta   r     elong  mag " sig PA
---- -- -- --  -------------   -----------  ------ ------ -----  --- ---- ---
2020 01 19 10  06 11 57.799   -40 35 02.28  596089 .98547 113.8 20.3  42d 148
2020 01 19 11  06 11 23.474   -40 52 49.94  599110 .98546 113.4 20.4  42d 148
2020 01 19 12  06 10 49.186   -41 10 26.05  602134 .98545 113.1 20.4  42d 148
2020 01 19 13  06 10 14.935   -41 27 50.77  605161 .98544 112.8 20.4  42d 147
2020 01 19 14  06 09 40.720   -41 45 04.25  608192 .98543 112.5 20.4  41d 147
2020 01 19 15  06 09 06.539   -42 02 06.65  611225 .98542 112.2 20.4  41d 147
2020 01 19 16  06 08 32.391   -42 18 58.12  614262 .98541 111.9 20.5  41d 147
2020 01 19 17  06 07 58.276   -42 35 38.81  617302 .98541 111.6 20.5  41d 147
2020 01 19 18  06 07 24.192   -42 52 08.86  620344 .98540 111.3 20.5  41d 147
2020 01 19 19  06 06 50.138   -43 08 28.42  623389 .98539 111.0 20.5  41d 147
2020 01 19 20  06 06 16.114   -43 24 37.63  626437 .98538 110.7 20.5  41d 147
2020 01 19 21  06 05 42.118   -43 40 36.63  629486 .98537 110.4 20.6  41d 147
2020 01 19 22  06 05 08.151   -43 56 25.56  632539 .98536 110.1 20.6  41d 146
2020 01 19 23  06 04 34.210   -44 12 04.55  635593 .98535 109.8 20.6  41d 146
2020 01 20 00  06 04 00.295   -44 27 33.74  638650 .98534 109.6 20.6  40d 146
2020 01 20 01  06 03 26.405   -44 42 53.26  641708 .98533 109.3 20.6  40d 146
2020 01 20 02  06 02 52.539   -44 58 03.24  644769 .98532 109.0 20.7  40d 146
2020 01 20 03  06 02 18.698   -45 13 03.81  647831 .98531 108.7 20.7  40d 146
2020 01 20 04  06 01 44.879   -45 27 55.08  650895 .98530 108.5 20.7  40d 146
2020 01 20 05  06 01 11.082   -45 42 37.20  653961 .98530 108.2 20.7  40d 146
2020 01 20 06  06 00 37.307   -45 57 10.27  657028 .98529 107.9 20.7  40d 146
2020 01 20 07  06 00 03.552   -46 11 34.43  660096 .98528 107.7 20.8  40d 145
2020 01 20 08  05 59 29.818   -46 25 49.78  663166 .98527 107.4 20.8  40d 145
2020 01 20 09  05 58 56.102   -46 39 56.44  666237 .98526 107.1 20.8  39d 145
2020 01 20 10  05 58 22.406   -46 53 54.53  669310 .98525 106.9 20.8  39d 145
2020 01 20 11  05 57 48.728   -47 07 44.17  672383 .98524 106.6 20.8  39d 145
2020 01 20 12  05 57 15.067   -47 21 25.45  675458 .98523 106.4 20.8  39d 145
2020 01 20 13  05 56 41.423   -47 34 58.50  678533 .98522 106.1 20.9  39d 145
2020 01 20 14  05 56 07.796   -47 48 23.42  681609 .98521 105.9 20.9  39d 145
2020 01 20 15  05 55 34.184   -48 01 40.31  684686 .98520 105.6 20.9  39d 144
2020 01 20 16  05 55 00.588   -48 14 49.28  687764 .98519 105.4 20.9  39d 144
2020 01 20 17  05 54 27.006   -48 27 50.43  690842 .98518 105.2 20.9  39d 144
2020 01 20 18  05 53 53.439   -48 40 43.87  693921 .98517 104.9 21.0  39d 144
2020 01 20 19  05 53 19.886   -48 53 29.69  697001 .98516 104.7 21.0  38d 144
2020 01 20 20  05 52 46.345   -49 06 07.99  700081 .98515 104.4 21.0  38d 144
2020 01 20 21  05 52 12.818   -49 18 38.87  703161 .98515 104.2 21.0  38d 144
2020 01 20 22  05 51 39.303   -49 31 02.43  706242 .98514 104.0 21.0  38d 143
2020 01 20 23  05 51 05.799   -49 43 18.75  709322 .98513 103.8 21.0  38d 143
2020 01 21 00  05 50 32.307   -49 55 27.93  712403 .98512 103.5 21.1  38d 143
2020 01 21 01  05 49 58.827   -50 07 30.06  715485 .98511 103.3 21.1  38d 143
2020 01 21 02  05 49 25.356   -50 19 25.22  718566 .98510 103.1 21.1  38d 143
2020 01 21 03  05 48 51.896   -50 31 13.52  721647 .98509 102.9 21.1  38d 143
2020 01 21 04  05 48 18.446   -50 42 55.03  724728 .98508 102.6 21.1  38d 143
2020 01 21 05  05 47 45.006   -50 54 29.84  727810 .98507 102.4 21.1  37d 143
2020 01 21 06  05 47 11.574   -51 05 58.03  730891 .98506 102.2 21.2  37d 142
2020 01 21 07  05 46 38.151   -51 17 19.69  733972 .98505 102.0 21.2  37d 142
2020 01 21 08  05 46 04.737   -51 28 34.89  737052 .98504 101.8 21.2  37d 142
2020 01 21 09  05 45 31.331   -51 39 43.72  740133 .98503 101.6 21.2  37d 142